Location: Indian Hills
(32.9760°N, 85.9450°W)
Time: 18:56:21
(UTC+00:00)

Cosmos 1603 - Pass Details

Date: 09 December 2019
Orbit: 830 x 860 km, 71.0° (Epoch: 26 January)

Event Time Altitude Azimuth Distance (km) Brightness Sun altitude
Rises 00:39:54 0° 185° (S) 3,387 7.0 -25.1°
Reaches altitude 10° 00:42:23 10° 180° (S) 2,460 6.2 -25.6°
Enters shadow 00:46:03 37° 155° (SSE) 1,293 4.5 -26.4°
